Vertical_Velocity
-1 -4 -2 2 0 2 -3 -0 1 -3 -5 -5 -4 -4 -4 -5 -3 1 0 -0 -3 -7
1 -0 0 0 -1 -1 -2 -2 -6 -7 -5 -4 -3 -2 0 -1 -3 -6 -6 -4 -1 -2
-0 2 3 3 0 -1 -1 -6 -6 -4 -1 -2 -2 -2 -1 -1 2 1 2 0 2 -0
2 2 -0 -2 -1 1 -3 -5 -3 -1 -0 -5 -3 -1 0 -1 -6 -1 4 1 -7 4
1 -0 1 -0 -1 -3 -3 -2 -2 -3 -2 -2 -3 -1 -2 -0 2 -4 -5 1 -1 -5
1 4 2 1 -1 -4 -4 -5 -4 -1 0 -3 -5 -2 1 -2 -4 -1 -0 -2 -4 -2
3 1 1 -0 -2 -4 -4 -2 2 0 -6 -2 2 -3 -1 1 -1 -2 -3 -0 -3 -3
0 0 -1 -0 -6 -4 -2 -1 -8 -2 0 -1 -1 -2 -1 -2 2 0 -0 3 2 -2
-1 -1 2 -5 -2 -1 -1 -4 -3 1 -0 -4 -4 -1 -4 -5 -5 3 -3 -3 2 3
-2 -1 -7 -5 -3 -2 -3 -2 -2 -3 0 -3 -3 -2 -5 -4 -3 -1 -3 -4 -2 -2
-1 -6 -9 -2 -2 -2 -1 3 2 -3 -4 -1 -2 -3 -6 -4 -1 1 -2 -1 -1 -5
-8 -8 -1 -1 -3 0 -1 -0 -3 -3 2 -3 -1 -1 4 -1 -1 -2 1 2 0 -4
-6 2 1 -2 -3 0 -3 -4 -1 1 -1 2 1 0 -3 -5 -4 -1 1 8 2 0
2 1 -0 0 2 -1 -2 -2 -1 1 3 3 -0 -3 -7 -1 -5 -9 -3 -5 -0 1
Height
3119 3121 3122 3121 3120 3118 3116 3113 3107 3103 3099 3094 3089 3083 3077 3074 3071 3067 3064 3059 3055 3050
3113 3113 3113 3112 3111 3109 3105 3100 3097 3093 3088 3084 3078 3073 3069 3065 3062 3058 3054 3050 3045 3041
3105 3105 3105 3104 3101 3098 3094 3091 3088 3084 3079 3075 3070 3064 3060 3057 3054 3049 3045 3040 3035 3031
3098 3097 3096 3094 3092 3087 3086 3084 3080 3075 3070 3065 3061 3057 3053 3049 3045 3039 3035 3031 3026 3021
3089 3088 3087 3085 3082 3081 3079 3075 3071 3066 3060 3056 3052 3048 3044 3040 3035 3032 3029 3023 3018 3014
3081 3081 3079 3076 3075 3073 3071 3066 3061 3057 3053 3049 3044 3040 3036 3033 3030 3026 3021 3017 3011 3005
3073 3072 3071 3069 3068 3066 3062 3057 3053 3048 3045 3041 3036 3033 3031 3027 3023 3018 3013 3008 3004 2999
3065 3064 3063 3061 3060 3057 3053 3049 3045 3041 3037 3033 3030 3028 3024 3020 3016 3010 3005 3001 2997 2992
3056 3055 3054 3053 3051 3048 3045 3041 3037 3034 3030 3028 3024 3020 3016 3011 3007 3003 2999 2995 2990 2985
3046 3045 3045 3045 3042 3039 3036 3033 3030 3027 3023 3019 3016 3012 3008 3004 2998 2994 2990 2985 2979 2974
3036 3037 3037 3035 3033 3031 3028 3026 3023 3020 3016 3013 3009 3005 3001 2996 2991 2985 2980 2975 2970 2963
3029 3029 3028 3027 3025 3023 3021 3018 3015 3012 3009 3006 3002 2998 2994 2989 2984 2979 2973 2967 2960 2953
3021 3021 3021 3019 3017 3015 3013 3010 3007 3004 3002 2999 2996 2991 2987 2981 2976 2970 2964 2958 2950 2943
3014 3014 3013 3011 3009 3007 3005 3002 3000 2999 2997 2993 2988 2984 2979 2974 2967 2962 2955 2948 2940 2933